Time,TemperatureF,DewpointF,PressureIn,WindDirection,WindDirectionDegrees,WindSpeedMPH,WindSpeedGustMPH,Humidity,HourlyPrecipIn,Conditions,Clouds,dailyrainin,SoftwareType,DateUTC
2013-01-05 00:03:00,24.2,2.8,30.53,SSE,158,0.0,1.0,39,0.00,,,0.00,Wunderground v.1.15,2013-01-05 06:03:00,
2013-01-05 00:08:00,23.9,3.0,30.53,SSE,158,0.0,1.0,40,0.00,,,0.00,Wunderground v.1.15,2013-01-05 06:08:00,
2013-01-05 00:14:00,23.8,3.0,30.53,SSE,158,0.0,0.0,40,0.00,,,0.00,Wunderground v.1.15,2013-01-05 06:14:00,
2013-01-05 00:19:00,23.7,2.9,30.53,SSE,158,0.0,0.0,40,0.00,,,0.00,Wunderground v.1.15,2013-01-05 06:19:00,
2013-01-05 00:25:00,23.2,2.9,30.53,SSE,158,0.0,1.0,41,0.00,,,0.00,Wunderground v.1.15,2013-01-05 06:25:00,
2013-01-05 00:31:00,22.5,2.3,30.53,SSE,158,1.0,5.0,41,0.00,,,0.00,Wunderground v.1.15,2013-01-05 06:31:00,
2013-01-05 00:37:00,20.9,2.4,30.53,SSE,158,2.0,5.0,44,0.00,,,0.00,Wunderground v.1.15,2013-01-05 06:37:00,
2013-01-05 00:43:00,20.7,2.2,30.53,SSE,158,1.0,5.0,44,0.00,,,0.00,Wunderground v.1.15,2013-01-05 06:43:00,
2013-01-05 00:49:00,21.5,2.9,30.53,SSE,159,1.0,5.0,44,0.00,,,0.00,Wunderground v.1.15,2013-01-05 06:49:00,
2013-01-05 00:54:00,22.7,3.0,30.53,SSE,159,2.0,5.0,42,0.00,,,0.00,Wunderground v.1.15,2013-01-05 06:54:00,
2013-01-05 01:00:00,21.7,2.6,30.53,SSE,159,2.0,2.0,43,0.00,,,0.00,Wunderground v.1.15,2013-01-05 07:00:00,
2013-01-05 01:06:00,21.0,2.5,30.53,SSE,159,1.0,2.0,44,0.00,,,0.00,Wunderground v.1.15,2013-01-05 07:06:00,
2013-01-05 01:11:00,20.9,2.9,30.53,SSE,159,0.0,0.0,45,0.00,,,0.00,Wunderground v.1.15,2013-01-05 07:11:00,
2013-01-05 01:17:00,21.2,3.1,30.53,SSE,159,0.0,2.0,45,0.00,,,0.00,Wunderground v.1.15,2013-01-05 07:17:00,
2013-01-05 01:22:00,21.3,3.2,30.53,SSE,159,0.0,0.0,45,0.00,,,0.00,Wunderground v.1.15,2013-01-05 07:22:00,
2013-01-05 01:28:00,21.3,3.7,30.53,SSE,159,0.0,2.0,46,0.00,,,0.00,Wunderground v.1.15,2013-01-05 07:28:00,
2013-01-05 01:34:00,21.2,3.1,30.53,SSE,159,0.0,4.0,45,0.00,,,0.00,Wunderground v.1.15,2013-01-05 07:34:00,
2013-01-05 01:39:00,21.1,3.5,30.54,SSE,159,0.0,4.0,46,0.00,,,0.00,Wunderground v.1.15,2013-01-05 07:39:00,
2013-01-05 01:45:00,21.0,3.4,30.54,SSE,159,0.0,4.0,46,0.00,,,0.00,Wunderground v.1.15,2013-01-05 07:45:00,
2013-01-05 01:50:00,20.9,3.3,30.54,SSE,159,0.0,4.0,46,0.00,,,0.00,Wunderground v.1.15,2013-01-05 07:50:00,
2013-01-05 01:56:00,20.9,3.3,30.54,SSE,159,0.0,4.0,46,0.00,,,0.00,Wunderground v.1.15,2013-01-05 07:56:00,
2013-01-05 02:02:00,20.5,3.0,30.54,SSE,159,0.0,0.0,46,0.00,,,0.00,Wunderground v.1.15,2013-01-05 08:02:00,
2013-01-05 02:07:00,20.2,3.6,30.55,SSE,159,0.0,2.0,48,0.00,,,0.00,Wunderground v.1.15,2013-01-05 08:07:00,
2013-01-05 02:13:00,20.4,3.3,30.55,SSE,159,0.0,1.0,47,0.00,,,0.00,Wunderground v.1.15,2013-01-05 08:13:00,
2013-01-05 02:18:00,20.7,3.6,30.55,SSE,159,0.0,1.0,47,0.00,,,0.00,Wunderground v.1.15,2013-01-05 08:18:00,
2013-01-05 02:24:00,21.6,3.5,30.55,SSE,159,1.0,4.0,45,0.00,,,0.00,Wunderground v.1.15,2013-01-05 08:24:00,
2013-01-05 02:29:00,21.9,3.8,30.55,SSE,159,1.0,4.0,45,0.00,,,0.00,Wunderground v.1.15,2013-01-05 08:29:00,
2013-01-05 02:35:00,21.9,3.8,30.55,SSE,159,0.0,4.0,45,0.00,,,0.00,Wunderground v.1.15,2013-01-05 08:35:00,
2013-01-05 02:40:00,22.0,3.9,30.55,SSE,159,0.0,4.0,45,0.00,,,0.00,Wunderground v.1.15,2013-01-05 08:40:00,
2013-01-05 02:46:00,21.6,3.0,30.56,SSE,159,0.0,4.0,44,0.00,,,0.00,Wunderground v.1.15,2013-01-05 08:46:00,
2013-01-05 02:52:00,21.0,3.4,30.56,SSE,159,0.0,4.0,46,0.00,,,0.00,Wunderground v.1.15,2013-01-05 08:52:00,
2013-01-05 02:57:00,20.8,3.2,30.56,SSE,159,0.0,4.0,46,0.00,,,0.00,Wunderground v.1.15,2013-01-05 08:57:00,
2013-01-05 03:03:00,20.5,3.4,30.56,SSE,159,0.0,2.0,47,0.00,,,0.00,Wunderground v.1.15,2013-01-05 09:03:00,
2013-01-05 03:08:00,20.6,3.5,30.56,SSE,159,0.0,4.0,47,0.00,,,0.00,Wunderground v.1.15,2013-01-05 09:08:00,
2013-01-05 03:14:00,20.7,3.6,30.56,SSE,159,0.0,0.0,47,0.00,,,0.00,Wunderground v.1.15,2013-01-05 09:14:00,
2013-01-05 03:19:00,20.7,3.6,30.56,SSE,159,0.0,0.0,47,0.00,,,0.00,Wunderground v.1.15,2013-01-05 09:19:00,
2013-01-05 03:25:00,20.6,3.5,30.56,SSE,159,0.0,0.0,47,0.00,,,0.00,Wunderground v.1.15,2013-01-05 09:25:00,
2013-01-05 03:31:00,20.3,3.2,30.57,SSE,159,0.0,4.0,47,0.00,,,0.00,Wunderground v.1.15,2013-01-05 09:31:00,
2013-01-05 03:36:00,19.8,3.2,30.57,SSE,159,0.0,4.0,48,0.00,,,0.00,Wunderground v.1.15,2013-01-05 09:36:00,
2013-01-05 03:42:00,19.3,3.2,30.57,SSE,159,0.0,4.0,49,0.00,,,0.00,Wunderground v.1.15,2013-01-05 09:42:00,
2013-01-05 03:47:00,19.1,3.0,30.57,SSE,159,1.0,4.0,49,0.00,,,0.00,Wunderground v.1.15,2013-01-05 09:47:00,
2013-01-05 03:53:00,19.4,3.3,30.57,SSE,159,0.0,4.0,49,0.00,,,0.00,Wunderground v.1.15,2013-01-05 09:53:00,
2013-01-05 03:58:00,19.7,3.6,30.57,SSE,159,0.0,4.0,49,0.00,,,0.00,Wunderground v.1.15,2013-01-05 09:58:00,
2013-01-05 04:04:00,20.0,3.9,30.57,SSE,159,0.0,0.0,49,0.00,,,0.00,Wunderground v.1.15,2013-01-05 10:04:00,
2013-01-05 04:10:00,20.1,3.5,30.58,SSE,159,0.0,2.0,48,0.00,,,0.00,Wunderground v.1.15,2013-01-05 10:10:00,
2013-01-05 04:15:00,20.3,3.7,30.58,SSE,159,2.0,5.0,48,0.00,,,0.00,Wunderground v.1.15,2013-01-05 10:15:00,
2013-01-05 04:21:00,20.4,3.8,30.58,SSE,157,4.0,4.0,48,0.00,,,0.00,Wunderground v.1.15,2013-01-05 10:21:00,
2013-01-05 04:27:00,20.3,3.7,30.58,SSE,156,2.0,4.0,48,0.00,,,0.00,Wunderground v.1.15,2013-01-05 10:27:00,
2013-01-05 04:32:00,19.9,3.8,30.58,SSE,156,0.0,4.0,49,0.00,,,0.00,Wunderground v.1.15,2013-01-05 10:32:00,
2013-01-05 04:38:00,19.6,3.5,30.58,SSE,156,0.0,4.0,49,0.00,,,0.00,Wunderground v.1.15,2013-01-05 10:38:00,
2013-01-05 04:44:00,19.3,3.7,30.58,SSE,156,0.0,4.0,50,0.00,,,0.00,Wunderground v.1.15,2013-01-05 10:44:00,
2013-01-05 04:49:00,19.0,3.4,30.58,SSE,156,0.0,4.0,50,0.00,,,0.00,Wunderground v.1.15,2013-01-05 10:49:00,
2013-01-05 04:55:00,18.8,3.6,30.58,SSE,156,0.0,4.0,51,0.00,,,0.00,Wunderground v.1.15,2013-01-05 10:55:00,
2013-01-05 05:00:00,18.8,4.1,30.58,SSE,156,0.0,0.0,52,0.00,,,0.00,Wunderground v.1.15,2013-01-05 11:00:00,
2013-01-05 05:06:00,18.9,3.7,30.58,SSE,156,0.0,0.0,51,0.00,,,0.00,Wunderground v.1.15,2013-01-05 11:06:00,
2013-01-05 05:12:00,18.8,3.6,30.58,SSE,156,0.0,2.0,51,0.00,,,0.00,Wunderground v.1.15,2013-01-05 11:12:00,
2013-01-05 05:17:00,18.4,3.3,30.58,SSE,157,1.0,2.0,51,0.00,,,0.00,Wunderground v.1.15,2013-01-05 11:17:00,
2013-01-05 05:23:00,18.0,3.3,30.58,SSE,157,3.0,4.0,52,0.00,,,0.00,Wunderground v.1.15,2013-01-05 11:23:00,
2013-01-05 05:28:00,17.6,3.3,30.58,SSE,157,4.0,5.0,53,0.00,,,0.00,Wunderground v.1.15,2013-01-05 11:28:00,
2013-01-05 05:34:00,17.4,3.6,30.58,SSE,157,4.0,8.0,54,0.00,,,0.00,Wunderground v.1.15,2013-01-05 11:34:00,
2013-01-05 05:40:00,17.4,3.6,30.58,SSE,157,4.0,8.0,54,0.00,,,0.00,Wunderground v.1.15,2013-01-05 11:40:00,
2013-01-05 05:45:00,17.8,3.9,30.58,SSE,157,3.0,8.0,54,0.00,,,0.00,Wunderground v.1.15,2013-01-05 11:45:00,
2013-01-05 05:51:00,17.9,3.6,30.58,SSE,157,3.0,8.0,53,0.00,,,0.00,Wunderground v.1.15,2013-01-05 11:51:00,
2013-01-05 05:56:00,17.9,4.0,30.59,SSE,157,4.0,8.0,54,0.00,,,0.00,Wunderground v.1.15,2013-01-05 11:56:00,
2013-01-05 06:02:00,18.0,4.1,30.58,SSE,157,4.0,4.0,54,0.00,,,0.00,Wunderground v.1.15,2013-01-05 12:02:00,
2013-01-05 06:08:00,18.4,4.5,30.58,SSE,157,4.0,5.0,54,0.00,,,0.00,Wunderground v.1.15,2013-01-05 12:08:00,
2013-01-05 06:13:00,18.6,4.3,30.58,SSE,157,3.0,5.0,53,0.00,,,0.00,Wunderground v.1.15,2013-01-05 12:13:00,
2013-01-05 06:19:00,18.6,4.7,30.58,SSE,157,2.0,5.0,54,0.00,,,0.00,Wunderground v.1.15,2013-01-05 12:19:00,
2013-01-05 06:24:00,18.6,4.7,30.58,SSE,157,1.0,2.0,54,0.00,,,0.00,Wunderground v.1.15,2013-01-05 12:24:00,
2013-01-05 06:30:00,18.5,4.6,30.58,SSE,157,2.0,4.0,54,0.00,,,0.00,Wunderground v.1.15,2013-01-05 12:30:00,
2013-01-05 06:36:00,18.2,4.3,30.58,SSE,157,3.0,5.0,54,0.00,,,0.00,Wunderground v.1.15,2013-01-05 12:36:00,
2013-01-05 06:41:00,18.2,4.3,30.58,SSE,157,2.0,5.0,54,0.00,,,0.00,Wunderground v.1.15,2013-01-05 12:41:00,
2013-01-05 06:47:00,17.9,4.0,30.59,SSE,157,2.0,5.0,54,0.00,,,0.00,Wunderground v.1.15,2013-01-05 12:47:00,
2013-01-05 06:53:00,17.5,4.1,30.59,SSE,157,2.0,5.0,55,0.00,,,0.00,Wunderground v.1.15,2013-01-05 12:53:00,
2013-01-05 06:58:00,17.2,3.8,30.59,SSE,157,1.0,5.0,55,0.00,,,0.00,Wunderground v.1.15,2013-01-05 12:58:00,
2013-01-05 07:04:00,17.2,4.2,30.59,SSE,157,1.0,2.0,56,0.00,,,0.00,Wunderground v.1.15,2013-01-05 13:04:00,
2013-01-05 07:10:00,17.0,3.6,30.60,SSE,157,3.0,5.0,55,0.00,,,0.00,Wunderground v.1.15,2013-01-05 13:10:00,
2013-01-05 07:15:00,16.5,3.9,30.60,SSE,157,4.0,5.0,57,0.00,,,0.00,Wunderground v.1.15,2013-01-05 13:15:00,
2013-01-05 07:21:00,16.9,4.3,30.60,SSE,157,5.0,5.0,57,0.00,,,0.00,Wunderground v.1.15,2013-01-05 13:21:00,
2013-01-05 07:26:00,17.0,4.0,30.60,SSE,157,4.0,6.0,56,0.00,,,0.00,Wunderground v.1.15,2013-01-05 13:26:00,
2013-01-05 07:32:00,17.0,4.0,30.60,SSE,157,4.0,5.0,56,0.00,,,0.00,Wunderground v.1.15,2013-01-05 13:32:00,
2013-01-05 07:37:00,17.1,4.1,30.60,SSE,157,5.0,6.0,56,0.00,,,0.00,Wunderground v.1.15,2013-01-05 13:37:00,
2013-01-05 07:43:00,17.1,4.1,30.60,SSE,157,5.0,5.0,56,0.00,,,0.00,Wunderground v.1.15,2013-01-05 13:43:00,
2013-01-05 07:48:00,17.0,4.0,30.61,SSE,157,3.0,5.0,56,0.00,,,0.00,Wunderground v.1.15,2013-01-05 13:48:00,
2013-01-05 07:54:00,16.3,3.7,30.61,SSE,157,1.0,5.0,57,0.00,,,0.00,Wunderground v.1.15,2013-01-05 13:54:00,
2013-01-05 08:00:00,15.4,3.6,30.61,SSE,157,0.0,0.0,59,0.00,,,0.00,Wunderground v.1.15,2013-01-05 14:00:00,
2013-01-05 08:06:00,14.7,3.7,30.62,SSE,157,0.0,1.0,61,0.00,,,0.00,Wunderground v.1.15,2013-01-05 14:06:00,
2013-01-05 08:12:00,14.6,3.9,30.62,SSE,157,0.0,1.0,62,0.00,,,0.00,Wunderground v.1.15,2013-01-05 14:12:00,
2013-01-05 08:18:00,14.4,3.7,30.63,SSE,157,0.0,1.0,62,0.00,,,0.00,Wunderground v.1.15,2013-01-05 14:18:00,
2013-01-05 08:23:00,14.2,3.6,30.63,SSE,157,0.0,0.0,62,0.00,,,0.00,Wunderground v.1.15,2013-01-05 14:23:00,
2013-01-05 08:29:00,13.9,3.6,30.63,SSE,157,0.0,0.0,63,0.00,,,0.00,Wunderground v.1.15,2013-01-05 14:29:00,
2013-01-05 08:35:00,13.8,3.9,30.63,SSE,157,0.0,7.0,64,0.00,,,0.00,Wunderground v.1.15,2013-01-05 14:35:00,
2013-01-05 08:41:00,14.1,3.8,30.64,SSE,157,0.0,7.0,63,0.00,,,0.00,Wunderground v.1.15,2013-01-05 14:41:00,
2013-01-05 08:46:00,14.6,4.3,30.64,SSE,157,0.0,7.0,63,0.00,,,0.00,Wunderground v.1.15,2013-01-05 14:46:00,
2013-01-05 08:52:00,15.0,4.3,30.64,SSE,157,0.0,7.0,62,0.00,,,0.00,Wunderground v.1.15,2013-01-05 14:52:00,
2013-01-05 08:57:00,15.5,4.4,30.64,SSE,157,0.0,7.0,61,0.00,,,0.00,Wunderground v.1.15,2013-01-05 14:57:00,
2013-01-05 09:03:00,16.2,4.4,30.64,SSE,157,0.0,0.0,59,0.00,,,0.00,Wunderground v.1.15,2013-01-05 15:03:00,
2013-01-05 09:09:00,17.0,4.4,30.65,SSE,157,0.0,0.0,57,0.00,,,0.00,Wunderground v.1.15,2013-01-05 15:09:00,
2013-01-05 09:14:00,17.8,4.3,30.65,SSE,157,0.0,1.0,55,0.00,,,0.00,Wunderground v.1.15,2013-01-05 15:14:00,
2013-01-05 09:20:00,18.4,4.5,30.65,SSE,157,0.0,0.0,54,0.00,,,0.00,Wunderground v.1.15,2013-01-05 15:20:00,
2013-01-05 09:26:00,19.1,4.3,30.65,SSE,157,0.0,1.0,52,0.00,,,0.00,Wunderground v.1.15,2013-01-05 15:26:00,
2013-01-05 09:31:00,19.8,4.6,30.65,SSE,157,0.0,4.0,51,0.00,,,0.00,Wunderground v.1.15,2013-01-05 15:31:00,
2013-01-05 09:37:00,20.7,5.4,30.65,SSE,157,1.0,4.0,51,0.00,,,0.00,Wunderground v.1.15,2013-01-05 15:37:00,
2013-01-05 09:42:00,20.8,5.1,30.66,SSE,157,1.0,4.0,50,0.00,,,0.00,Wunderground v.1.15,2013-01-05 15:42:00,
2013-01-05 09:48:00,21.3,5.1,30.66,SSE,157,0.0,4.0,49,0.00,,,0.00,Wunderground v.1.15,2013-01-05 15:48:00,
2013-01-05 09:53:00,21.8,4.6,30.66,SSE,157,0.0,4.0,47,0.00,,,0.00,Wunderground v.1.15,2013-01-05 15:53:00,
2013-01-05 09:59:00,22.1,4.9,30.66,SSE,157,1.0,4.0,47,0.00,,,0.00,Wunderground v.1.15,2013-01-05 15:59:00,
2013-01-05 10:05:00,23.3,6.0,30.66,SSE,157,0.0,4.0,47,0.00,,,0.00,Wunderground v.1.15,2013-01-05 16:05:00,
2013-01-05 10:10:00,24.5,5.7,30.66,SSE,157,1.0,4.0,44,0.00,,,0.00,Wunderground v.1.15,2013-01-05 16:10:00,
2013-01-05 10:16:00,25.2,5.8,30.66,SSE,157,1.0,4.0,43,0.00,,,0.00,Wunderground v.1.15,2013-01-05 16:16:00,
2013-01-05 10:21:00,25.8,6.3,30.66,SSE,157,0.0,0.0,43,0.00,,,0.00,Wunderground v.1.15,2013-01-05 16:21:00,
2013-01-05 10:27:00,26.9,6.3,30.66,SSE,157,0.0,0.0,41,0.00,,,0.00,Wunderground v.1.15,2013-01-05 16:27:00,
2013-01-05 10:32:00,28.0,7.3,30.66,SSE,157,0.0,4.0,41,0.00,,,0.00,Wunderground v.1.15,2013-01-05 16:32:00,
2013-01-05 10:38:00,29.2,6.7,30.66,SSE,157,0.0,4.0,38,0.00,,,0.00,Wunderground v.1.15,2013-01-05 16:38:00,
2013-01-05 10:44:00,27.6,5.8,30.66,SSE,157,1.0,4.0,39,0.00,,,0.00,Wunderground v.1.15,2013-01-05 16:44:00,
2013-01-05 10:49:00,27.1,6.5,30.66,SSE,157,1.0,4.0,41,0.00,,,0.00,Wunderground v.1.15,2013-01-05 16:49:00,
2013-01-05 10:55:00,26.9,6.3,30.66,SE,145,2.0,6.0,41,0.00,,,0.00,Wunderground v.1.15,2013-01-05 16:55:00,
2013-01-05 11:00:00,27.0,6.9,30.66,SE,142,3.0,4.0,42,0.00,,,0.00,Wunderground v.1.15,2013-01-05 17:00:00,
2013-01-05 11:06:00,27.1,7.0,30.66,SE,139,3.0,7.0,42,0.00,,,0.00,Wunderground v.1.15,2013-01-05 17:06:00,
2013-01-05 11:11:00,27.4,6.8,30.66,SE,139,2.0,2.0,41,0.00,,,0.00,Wunderground v.1.15,2013-01-05 17:11:00,
2013-01-05 11:17:00,27.9,7.2,30.66,SE,138,2.0,5.0,41,0.00,,,0.00,Wunderground v.1.15,2013-01-05 17:17:00,
2013-01-05 11:23:00,28.2,6.4,30.66,SE,138,2.0,4.0,39,0.00,,,0.00,Wunderground v.1.15,2013-01-05 17:23:00,
2013-01-05 11:28:00,28.4,6.6,30.66,SE,138,1.0,4.0,39,0.00,,,0.00,Wunderground v.1.15,2013-01-05 17:28:00,
2013-01-05 11:34:00,29.6,7.1,30.66,SE,138,0.0,5.0,38,0.00,,,0.00,Wunderground v.1.15,2013-01-05 17:34:00,
2013-01-05 11:39:00,30.3,7.1,30.66,SE,138,0.0,5.0,37,0.00,,,0.00,Wunderground v.1.15,2013-01-05 17:39:00,
2013-01-05 11:45:00,30.7,6.9,30.65,SE,138,1.0,5.0,36,0.00,,,0.00,Wunderground v.1.15,2013-01-05 17:45:00,
2013-01-05 11:51:00,30.5,6.7,30.65,SE,138,2.0,6.0,36,0.00,,,0.00,Wunderground v.1.15,2013-01-05 17:51:00,
2013-01-05 11:56:00,31.0,7.1,30.65,SE,138,1.0,6.0,36,0.00,,,0.00,Wunderground v.1.15,2013-01-05 17:56:00,
2013-01-05 12:02:00,31.2,6.7,30.65,SE,138,1.0,1.0,35,0.00,,,0.00,Wunderground v.1.15,2013-01-05 18:02:00,
2013-01-05 12:08:00,31.4,6.2,30.64,SE,138,1.0,2.0,34,0.00,,,0.00,Wunderground v.1.15,2013-01-05 18:08:00,
2013-01-05 12:13:00,32.2,6.9,30.64,SE,138,0.0,1.0,34,0.00,,,0.00,Wunderground v.1.15,2013-01-05 18:13:00,
2013-01-05 12:19:00,33.5,7.4,30.63,SE,138,0.0,4.0,33,0.00,,,0.00,Wunderground v.1.15,2013-01-05 18:19:00,
2013-01-05 12:24:00,33.4,6.7,30.63,SE,138,1.0,4.0,32,0.00,,,0.00,Wunderground v.1.15,2013-01-05 18:24:00,
2013-01-05 12:30:00,32.9,6.9,30.63,SE,138,1.0,1.0,33,0.00,,,0.00,Wunderground v.1.15,2013-01-05 18:30:00,
2013-01-05 12:35:00,32.8,6.1,30.62,SE,138,1.0,7.0,32,0.00,,,0.00,Wunderground v.1.15,2013-01-05 18:35:00,
2013-01-05 12:41:00,32.8,6.8,30.61,SE,138,1.0,7.0,33,0.00,,,0.00,Wunderground v.1.15,2013-01-05 18:41:00,
2013-01-05 12:46:00,34.0,7.2,30.61,SE,138,1.0,7.0,32,0.00,,,0.00,Wunderground v.1.15,2013-01-05 18:46:00,
2013-01-05 12:52:00,34.4,6.8,30.61,SE,138,1.0,7.0,31,0.00,,,0.00,Wunderground v.1.15,2013-01-05 18:52:00,
2013-01-05 12:58:00,34.3,7.4,30.60,SE,138,1.0,7.0,32,0.00,,,0.00,Wunderground v.1.15,2013-01-05 18:58:00,
2013-01-05 13:03:00,35.0,7.4,30.60,SE,138,1.0,2.0,31,0.00,,,0.00,Wunderground v.1.15,2013-01-05 19:03:00,
2013-01-05 13:09:00,34.5,6.9,30.59,SE,135,2.0,6.0,31,0.00,,,0.00,Wunderground v.1.15,2013-01-05 19:09:00,
2013-01-05 13:14:00,34.1,6.6,30.59,SE,132,4.0,5.0,31,0.00,,,0.00,Wunderground v.1.15,2013-01-05 19:14:00,
2013-01-05 13:20:00,34.2,6.7,30.59,SE,132,2.0,2.0,31,0.00,,,0.00,Wunderground v.1.15,2013-01-05 19:20:00,
2013-01-05 13:25:00,34.6,7.0,30.58,SE,132,1.0,2.0,31,0.00,,,0.00,Wunderground v.1.15,2013-01-05 19:25:00,
2013-01-05 13:31:00,36.2,7.7,30.58,SE,132,0.0,1.0,30,0.00,,,0.00,Wunderground v.1.15,2013-01-05 19:31:00,
2013-01-05 13:36:00,36.4,7.1,30.58,SE,132,0.0,5.0,29,0.00,,,0.00,Wunderground v.1.15,2013-01-05 19:36:00,
2013-01-05 13:42:00,37.0,6.9,30.57,ENE,63,1.0,5.0,28,0.00,,,0.00,Wunderground v.1.15,2013-01-05 19:42:00,
2013-01-05 13:48:00,36.7,6.6,30.57,ENE,64,1.0,5.0,28,0.00,,,0.00,Wunderground v.1.15,2013-01-05 19:48:00,
2013-01-05 13:53:00,36.7,6.6,30.56,ENE,65,2.0,5.0,28,0.00,,,0.00,Wunderground v.1.15,2013-01-05 19:53:00,
2013-01-05 13:59:00,36.9,6.8,30.56,ENE,65,1.0,5.0,28,0.00,,,0.00,Wunderground v.1.15,2013-01-05 19:59:00,
2013-01-05 14:04:00,37.5,7.3,30.56,ENE,65,1.0,4.0,28,0.00,,,0.00,Wunderground v.1.15,2013-01-05 20:04:00,
2013-01-05 14:10:00,38.7,7.5,30.56,ENE,65,0.0,4.0,27,0.00,,,0.00,Wunderground v.1.15,2013-01-05 20:10:00,
2013-01-05 14:15:00,38.4,7.3,30.55,ENE,65,1.0,4.0,27,0.00,,,0.00,Wunderground v.1.15,2013-01-05 20:15:00,
2013-01-05 14:21:00,38.9,7.7,30.55,ENE,66,1.0,3.0,27,0.00,,,0.00,Wunderground v.1.15,2013-01-05 20:21:00,
2013-01-05 14:26:00,39.5,7.4,30.55,ENE,66,1.0,3.0,26,0.00,,,0.00,Wunderground v.1.15,2013-01-05 20:26:00,
2013-01-05 14:32:00,40.4,7.3,30.55,ENE,67,1.0,6.0,25,0.00,,,0.00,Wunderground v.1.15,2013-01-05 20:32:00,
2013-01-05 14:37:00,40.4,7.3,30.55,ENE,67,2.0,6.0,25,0.00,,,0.00,Wunderground v.1.15,2013-01-05 20:37:00,
2013-01-05 14:43:00,41.2,7.1,30.54,ENE,68,1.0,6.0,24,0.00,,,0.00,Wunderground v.1.15,2013-01-05 20:43:00,
2013-01-05 14:49:00,41.8,7.6,30.54,ENE,69,0.0,6.0,24,0.00,,,0.00,Wunderground v.1.15,2013-01-05 20:49:00,
2013-01-05 14:54:00,42.1,6.9,30.54,ENE,69,0.0,6.0,23,0.00,,,0.00,Wunderground v.1.15,2013-01-05 20:54:00,
2013-01-05 15:00:00,42.0,6.8,30.54,ENE,69,1.0,1.0,23,0.00,,,0.00,Wunderground v.1.15,2013-01-05 21:00:00,
2013-01-05 15:06:00,42.5,7.2,30.53,ENE,69,0.0,1.0,23,0.00,,,0.00,Wunderground v.1.15,2013-01-05 21:06:00,
2013-01-05 15:12:00,43.1,7.7,30.53,ENE,69,1.0,2.0,23,0.00,,,0.00,Wunderground v.1.15,2013-01-05 21:12:00,
2013-01-05 15:17:00,43.1,6.8,30.53,ENE,73,1.0,4.0,22,0.00,,,0.00,Wunderground v.1.15,2013-01-05 21:17:00,
2013-01-05 15:23:00,42.3,7.1,30.53,South,173,2.0,6.0,23,0.00,,,0.00,Wunderground v.1.15,2013-01-05 21:23:00,
2013-01-05 15:28:00,42.6,7.3,30.53,SSW,202,3.0,6.0,23,0.00,,,0.00,Wunderground v.1.15,2013-01-05 21:28:00,
2013-01-05 15:34:00,43.4,8.0,30.53,SSW,202,2.0,5.0,23,0.00,,,0.00,Wunderground v.1.15,2013-01-05 21:34:00,
2013-01-05 15:39:00,43.7,7.3,30.53,SSW,202,1.0,5.0,22,0.00,,,0.00,Wunderground v.1.15,2013-01-05 21:39:00,
2013-01-05 15:45:00,43.4,7.0,30.52,SSW,202,2.0,5.0,22,0.00,,,0.00,Wunderground v.1.15,2013-01-05 21:45:00,
2013-01-05 15:50:00,42.7,7.4,30.52,SSW,208,3.0,5.0,23,0.00,,,0.00,Wunderground v.1.15,2013-01-05 21:50:00,
2013-01-05 15:56:00,42.4,7.2,30.52,SSW,209,4.0,6.0,23,0.00,,,0.00,Wunderground v.1.15,2013-01-05 21:56:00,
2013-01-05 16:02:00,43.1,7.7,30.53,SSW,209,2.0,3.0,23,0.00,,,0.00,Wunderground v.1.15,2013-01-05 22:02:00,
2013-01-05 16:07:00,43.8,7.4,30.53,SSW,208,1.0,5.0,22,0.00,,,0.00,Wunderground v.1.15,2013-01-05 22:07:00,
2013-01-05 16:13:00,43.2,6.8,30.53,SSW,208,3.0,5.0,22,0.00,,,0.00,Wunderground v.1.15,2013-01-05 22:13:00,
2013-01-05 16:18:00,43.0,6.7,30.53,SSW,208,3.0,5.0,22,0.00,,,0.00,Wunderground v.1.15,2013-01-05 22:18:00,
2013-01-05 16:24:00,43.6,7.2,30.53,SSW,207,1.0,5.0,22,0.00,,,0.00,Wunderground v.1.15,2013-01-05 22:24:00,
2013-01-05 16:29:00,44.0,6.5,30.53,SSW,207,1.0,5.0,21,0.00,,,0.00,Wunderground v.1.15,2013-01-05 22:29:00,
2013-01-05 16:35:00,44.1,6.6,30.53,SSW,207,0.0,9.0,21,0.00,,,0.00,Wunderground v.1.15,2013-01-05 22:35:00,
2013-01-05 16:40:00,44.0,6.5,30.53,SSW,207,0.0,9.0,21,0.00,,,0.00,Wunderground v.1.15,2013-01-05 22:40:00,
2013-01-05 16:46:00,44.4,6.8,30.53,SSW,207,0.0,9.0,21,0.00,,,0.00,Wunderground v.1.15,2013-01-05 22:46:00,
2013-01-05 16:52:00,44.9,7.3,30.53,SSW,207,1.0,9.0,21,0.00,,,0.00,Wunderground v.1.15,2013-01-05 22:52:00,
2013-01-05 16:57:00,45.6,7.8,30.53,SSW,207,1.0,9.0,21,0.00,,,0.00,Wunderground v.1.15,2013-01-05 22:57:00,
2013-01-05 17:03:00,45.4,6.6,30.54,SSW,207,1.0,3.0,20,0.00,,,0.00,Wunderground v.1.15,2013-01-05 23:03:00,
2013-01-05 17:08:00,44.3,6.7,30.53,SSW,207,2.0,5.0,21,0.00,,,0.00,Wunderground v.1.15,2013-01-05 23:08:00,
2013-01-05 17:14:00,43.6,6.2,30.54,SSW,207,3.0,5.0,21,0.00,,,0.00,Wunderground v.1.15,2013-01-05 23:14:00,
2013-01-05 17:19:00,43.2,6.8,30.53,SSW,207,3.0,6.0,22,0.00,,,0.00,Wunderground v.1.15,2013-01-05 23:19:00,
2013-01-05 17:25:00,43.4,7.0,30.54,West,274,2.0,3.0,22,0.00,,,0.00,Wunderground v.1.15,2013-01-05 23:25:00,
2013-01-05 17:31:00,43.5,7.1,30.53,WNW,282,0.0,8.0,22,0.00,,,0.00,Wunderground v.1.15,2013-01-05 23:31:00,
2013-01-05 17:36:00,43.3,6.9,30.53,WNW,282,0.0,8.0,22,0.00,,,0.00,Wunderground v.1.15,2013-01-05 23:36:00,
2013-01-05 17:42:00,43.2,6.8,30.54,West,281,0.0,8.0,22,0.00,,,0.00,Wunderground v.1.15,2013-01-05 23:42:00,
2013-01-05 17:47:00,43.3,6.9,30.54,West,281,0.0,8.0,22,0.00,,,0.00,Wunderground v.1.15,2013-01-05 23:47:00,
2013-01-05 17:53:00,43.1,6.8,30.54,West,281,0.0,8.0,22,0.00,,,0.00,Wunderground v.1.15,2013-01-05 23:53:00,
2013-01-05 17:59:00,42.6,6.3,30.54,West,281,0.0,8.0,22,0.00,,,0.00,Wunderground v.1.15,2013-01-05 23:59:00,
2013-01-05 18:04:00,42.0,5.8,30.54,West,281,0.0,0.0,22,0.00,,,0.00,Wunderground v.1.15,2013-01-06 00:04:00,
2013-01-05 18:10:00,41.3,6.2,30.54,West,281,0.0,0.0,23,0.00,,,0.00,Wunderground v.1.15,2013-01-06 00:10:00,
2013-01-05 18:15:00,40.6,5.6,30.54,West,281,0.0,0.0,23,0.00,,,0.00,Wunderground v.1.15,2013-01-06 00:15:00,
2013-01-05 18:21:00,39.8,5.9,30.54,West,281,0.0,0.0,24,0.00,,,0.00,Wunderground v.1.15,2013-01-06 00:21:00,
2013-01-05 18:26:00,39.2,6.3,30.54,West,281,0.0,0.0,25,0.00,,,0.00,Wunderground v.1.15,2013-01-06 00:26:00,
2013-01-05 18:32:00,38.4,5.6,30.54,West,281,0.0,7.0,25,0.00,,,0.00,Wunderground v.1.15,2013-01-06 00:32:00,
2013-01-05 18:37:00,37.3,5.5,30.54,West,281,0.0,7.0,26,0.00,,,0.00,Wunderground v.1.15,2013-01-06 00:37:00,
2013-01-05 18:43:00,37.4,5.6,30.54,West,281,0.0,7.0,26,0.00,,,0.00,Wunderground v.1.15,2013-01-06 00:43:00,
2013-01-05 18:48:00,37.5,5.7,30.55,West,281,0.0,7.0,26,0.00,,,0.00,Wunderground v.1.15,2013-01-06 00:48:00,
2013-01-05 18:54:00,37.4,5.6,30.55,WNW,289,1.0,7.0,26,0.00,,,0.00,Wunderground v.1.15,2013-01-06 00:54:00,
2013-01-05 19:00:00,36.7,5.8,30.55,WNW,289,1.0,1.0,27,0.00,,,0.00,Wunderground v.1.15,2013-01-06 01:00:00,
2013-01-05 19:05:00,36.3,5.5,30.55,WNW,289,0.0,1.0,27,0.00,,,0.00,Wunderground v.1.15,2013-01-06 01:05:00,
2013-01-05 19:11:00,35.0,4.3,30.55,WNW,289,1.0,2.0,27,0.00,,,0.00,Wunderground v.1.15,2013-01-06 01:11:00,
2013-01-05 19:16:00,34.7,4.9,30.55,NW,305,3.0,5.0,28,0.00,,,0.00,Wunderground v.1.15,2013-01-06 01:16:00,
2013-01-05 19:22:00,34.6,4.8,30.55,NW,306,3.0,4.0,28,0.00,,,0.00,Wunderground v.1.15,2013-01-06 01:22:00,
2013-01-05 19:27:00,34.3,4.5,30.55,NW,306,3.0,6.0,28,0.00,,,0.00,Wunderground v.1.15,2013-01-06 01:27:00,
2013-01-05 19:33:00,33.7,4.0,30.55,NW,309,3.0,4.0,28,0.00,,,0.00,Wunderground v.1.15,2013-01-06 01:33:00,
2013-01-05 19:38:00,33.2,3.6,30.56,NW,309,3.0,4.0,28,0.00,,,0.00,Wunderground v.1.15,2013-01-06 01:38:00,
2013-01-05 19:44:00,32.7,3.9,30.56,NW,309,2.0,3.0,29,0.00,,,0.00,Wunderground v.1.15,2013-01-06 01:44:00,
2013-01-05 19:50:00,32.1,4.1,30.56,NW,309,2.0,2.0,30,0.00,,,0.00,Wunderground v.1.15,2013-01-06 01:50:00,
2013-01-05 19:55:00,32.0,4.0,30.57,NW,309,2.0,4.0,30,0.00,,,0.00,Wunderground v.1.15,2013-01-06 01:55:00,
2013-01-05 20:00:00,31.6,3.7,30.57,NW,309,2.0,4.0,30,0.00,,,0.00,Wunderground v.1.15,2013-01-06 02:00:00,
2013-01-05 20:06:00,31.2,3.3,30.57,NW,309,3.0,5.0,30,0.00,,,0.00,Wunderground v.1.15,2013-01-06 02:06:00,
2013-01-05 20:12:00,30.5,3.4,30.57,NW,309,3.0,4.0,31,0.00,,,0.00,Wunderground v.1.15,2013-01-06 02:12:00,
2013-01-05 20:18:00,29.9,3.6,30.57,NW,309,4.0,4.0,32,0.00,,,0.00,Wunderground v.1.15,2013-01-06 02:18:00,
2013-01-05 20:23:00,29.6,3.3,30.57,NW,310,3.0,4.0,32,0.00,,,0.00,Wunderground v.1.15,2013-01-06 02:23:00,
2013-01-05 20:29:00,29.5,3.2,30.57,NW,310,3.0,4.0,32,0.00,,,0.00,Wunderground v.1.15,2013-01-06 02:29:00,
2013-01-05 20:34:00,29.4,3.1,30.57,NW,310,2.0,6.0,32,0.00,,,0.00,Wunderground v.1.15,2013-01-06 02:34:00,
2013-01-05 20:40:00,28.9,2.7,30.57,NW,310,2.0,6.0,32,0.00,,,0.00,Wunderground v.1.15,2013-01-06 02:40:00,
2013-01-05 20:45:00,28.5,2.3,30.57,NW,310,3.0,6.0,32,0.00,,,0.00,Wunderground v.1.15,2013-01-06 02:45:00,
2013-01-05 20:51:00,28.3,2.8,30.57,NW,311,4.0,6.0,33,0.00,,,0.00,Wunderground v.1.15,2013-01-06 02:51:00,
2013-01-05 20:57:00,29.0,3.4,30.57,NW,313,4.0,6.0,33,0.00,,,0.00,Wunderground v.1.15,2013-01-06 02:57:00,
2013-01-05 21:02:00,29.3,3.7,30.57,NW,317,5.0,6.0,33,0.00,,,0.00,Wunderground v.1.15,2013-01-06 03:02:00,
2013-01-05 21:08:00,28.8,3.9,30.57,NW,317,4.0,6.0,34,0.00,,,0.00,Wunderground v.1.15,2013-01-06 03:08:00,
2013-01-05 21:13:00,28.3,3.5,30.58,NW,321,3.0,6.0,34,0.00,,,0.00,Wunderground v.1.15,2013-01-06 03:13:00,
2013-01-05 21:19:00,27.5,3.4,30.58,NW,322,3.0,6.0,35,0.00,,,0.00,Wunderground v.1.15,2013-01-06 03:19:00,
2013-01-05 21:25:00,27.7,4.8,30.58,NW,323,3.0,6.0,37,0.00,,,0.00,Wunderground v.1.15,2013-01-06 03:25:00,
2013-01-05 21:30:00,28.0,5.6,30.58,NW,323,3.0,3.0,38,0.00,,,0.00,Wunderground v.1.15,2013-01-06 03:30:00,
2013-01-05 21:36:00,27.9,5.5,30.58,NW,323,3.0,6.0,38,0.00,,,0.00,Wunderground v.1.15,2013-01-06 03:36:00,
2013-01-05 21:41:00,27.8,5.4,30.58,NW,323,3.0,6.0,38,0.00,,,0.00,Wunderground v.1.15,2013-01-06 03:41:00,
2013-01-05 21:47:00,27.7,5.9,30.58,NW,323,2.0,6.0,39,0.00,,,0.00,Wunderground v.1.15,2013-01-06 03:47:00,
2013-01-05 21:53:00,27.3,5.6,30.59,NW,323,0.0,6.0,39,0.00,,,0.00,Wunderground v.1.15,2013-01-06 03:53:00,
2013-01-05 21:58:00,27.4,6.2,30.59,NW,323,0.0,6.0,40,0.00,,,0.00,Wunderground v.1.15,2013-01-06 03:58:00,
2013-01-05 22:04:00,27.6,6.4,30.59,NW,323,0.0,0.0,40,0.00,,,0.00,Wunderground v.1.15,2013-01-06 04:04:00,
2013-01-05 22:10:00,27.8,6.6,30.59,NW,323,0.0,0.0,40,0.00,,,0.00,Wunderground v.1.15,2013-01-06 04:10:00,
2013-01-05 22:15:00,27.5,5.7,30.59,NW,323,0.0,0.0,39,0.00,,,0.00,Wunderground v.1.15,2013-01-06 04:15:00,
2013-01-05 22:21:00,26.8,5.7,30.60,NW,323,0.0,0.0,40,0.00,,,0.00,Wunderground v.1.15,2013-01-06 04:21:00,
2013-01-05 22:26:00,26.8,6.2,30.60,NW,323,0.0,0.0,41,0.00,,,0.00,Wunderground v.1.15,2013-01-06 04:26:00,
2013-01-05 22:32:00,26.9,6.3,30.60,NW,323,0.0,7.0,41,0.00,,,0.00,Wunderground v.1.15,2013-01-06 04:32:00,
2013-01-05 22:37:00,26.6,6.0,30.59,NW,323,0.0,7.0,41,0.00,,,0.00,Wunderground v.1.15,2013-01-06 04:37:00,
2013-01-05 22:43:00,26.2,5.7,30.60,NW,323,0.0,7.0,41,0.00,,,0.00,Wunderground v.1.15,2013-01-06 04:43:00,
2013-01-05 22:48:00,26.0,5.5,30.60,NW,323,0.0,7.0,41,0.00,,,0.00,Wunderground v.1.15,2013-01-06 04:48:00,
2013-01-05 22:54:00,25.8,5.3,30.60,NW,323,1.0,7.0,41,0.00,,,0.00,Wunderground v.1.15,2013-01-06 04:54:00,
2013-01-05 23:00:00,25.4,4.9,30.60,NW,323,1.0,3.0,41,0.00,,,0.00,Wunderground v.1.15,2013-01-06 05:00:00,
2013-01-05 23:02:00,25.3,4.8,30.60,NW,323,2.0,3.0,41,0.00,,,0.00,Wunderground v.1.15,2013-01-06 05:02:00,
2013-01-05 23:06:00,25.0,4.6,30.61,NW,323,3.0,4.0,41,0.00,,,0.00,Wunderground v.1.15,2013-01-06 05:06:00,
2013-01-05 23:08:00,24.7,4.3,30.60,NW,323,3.0,4.0,41,0.00,,,0.00,Wunderground v.1.15,2013-01-06 05:08:00,
2013-01-05 23:14:00,24.0,4.2,30.61,NW,323,3.0,3.0,42,0.00,,,0.00,Wunderground v.1.15,2013-01-06 05:14:00,
2013-01-05 23:19:00,23.9,4.6,30.61,NW,323,2.0,3.0,43,0.00,,,0.00,Wunderground v.1.15,2013-01-06 05:19:00,
2013-01-05 23:25:00,23.7,4.4,30.61,NW,323,2.0,3.0,43,0.00,,,0.00,Wunderground v.1.15,2013-01-06 05:25:00,
2013-01-05 23:31:00,23.8,5.0,30.61,NW,323,1.0,2.0,44,0.00,,,0.00,Wunderground v.1.15,2013-01-06 05:31:00,
2013-01-05 23:36:00,23.8,5.0,30.61,NW,323,0.0,2.0,44,0.00,,,0.00,Wunderground v.1.15,2013-01-06 05:36:00,
2013-01-05 23:42:00,23.8,5.5,30.61,NW,323,0.0,1.0,45,0.00,,,0.00,Wunderground v.1.15,2013-01-06 05:42:00,
2013-01-05 23:47:00,23.6,5.8,30.61,NW,323,0.0,2.0,46,0.00,,,0.00,Wunderground v.1.15,2013-01-06 05:47:00,
2013-01-05 23:53:00,23.3,5.5,30.61,NW,323,0.0,1.0,46,0.00,,,0.00,Wunderground v.1.15,2013-01-06 05:53:00,
2013-01-05 23:59:00,23.1,5.4,30.61,NW,323,0.0,2.0,46,0.00,,,0.00,Wunderground v.1.15,2013-01-06 05:59:00,